Regional Weather Roundup
Issued by NWS

Home | Current Version | Previous Version | Graphics & Text | Print | Product List | Glossary On
Versions: 1 2 3 4 5 6 7 8 9 10 11 12 13 14 15 16 17 18 19 20 21 22 23 24 25 26 27 28 29 30 31 32 33 34 35 36 37 38 39 40 41 42 43 44 45 46 47 48 49 50
000
ASUS43 KLOT 052112
RWRIL

ILLINOIS REGIONAL WEATHER ROUNDUP
NATIONAL WEATHER SERVICE CHICAGO/ROMEOVILLE IL
400 PM CDT TUE MAY 05 2015

NOTE: "FAIR" INDICATES FEW OR NO CLOUDS BELOW 12,000 FEET WITH NO
SIGNIFICANT WEATHER AND/OR OBSTRUCTIONS TO VISIBILITY.

* THESE STATIONS ARE NOT UNDER NWS QUALITY CONTROL. THEY ALSO MAY NOT
  REPORT WEATHER SUCH AS PRECIPITATION OR FOG.

ILZ001-002-007-009-015-016-024-052200-
NORTHWEST ILLINOIS

CITY           SKY/WX    TMP DP  RH WIND       PRES   REMARKS
MOLINE         PTSUNNY   72  63  73 E12       30.13F HAZE
STERLING*      CLOUDY    63  57  82 E10       30.18S
SAVANNA*       CLOUDY    61  55  82 NE15      30.18
$$

ILZ003-004-008-010-011-017-018-052200-
NORTH CENTRAL ILLINOIS

CITY           SKY/WX    TMP DP  RH WIND       PRES   REMARKS
ROCKFORD       CLOUDY    56  51  84 E13       30.22F
FREEPORT*      CLOUDY    55  53  91 E14       30.21F
ROCHELLE*      CLOUDY    59  56  89 NE13      30.20F
DE KALB*       CLOUDY    58  54  87 NE14      30.20F
PERU*          PTSUNNY   71  64  80 NE9       30.16S HAZE
$$

ILZ005-006-012>014-019>023-052200-
NORTHEAST ILLINOIS

CITY           SKY/WX    TMP DP  RH WIND       PRES   REMARKS
CHICAGO-OHARE  CLOUDY    50  49  96 NE12      30.21F FOG
CHICAGO-MIDWAY CLOUDY    57  53  86 NE12      30.20F FOG
AURORA         PTSUNNY   62  54  74 NE13      30.19F HAZE
LANSING*       CLOUDY    55  51  87 NE7       30.19F FOG
JOLIET*        PTSUNNY   65  58  79 NE9       30.17F
WAUKEGAN       CLOUDY    46  44  93 N8        30.24F
DUPAGE AIRPORT CLOUDY    56  52  86 NE14      30.20F
KANKAKEE*      PTSUNNY   73  67  83 N10       30.14F
WHEELING       CLOUDY    48  46  93 NE10      30.25F FOG
MORRIS*        PTSUNNY   68  60  76 NE8       30.15F HAZE
ROMEOVILLE*    PTSUNNY   61  55  79 NE10      30.18F
NORTHERLY ISL    N/A     49  47  93 N8          N/A
$$

LMZ740>746-052200-
SOUTHERN LAKE MICHIGAN

STATION/POSITION SKY/WX   TEMP    WIND        PRES    VSBY  WAVE
                          AIR SEA DIR/SP/G                  HT/PER
                          (F)     (DEG/KT/KT) (MB)    (MI)  (FT/S)
HARRISON CRIB              46      50/ 10/ 13   N/A
BURNHAM HARBOR             49      20/  8/  9   N/A
CALUMET HARBOR             47     340/  6/  9   N/A
BURNS HARBOR               50      40/  3/  4 1023.4F
MICHIGAN CITY              53      40/ 10/ 11   N/A
MICHIGAN CITY 6N           51 50   60/ 10/ 12   N/A           2/ 4
ST. JOSEPH                 54 49  100/ 12/ 14   N/A           1/ 3
$$

ILZ025>027-034>036-040-047-049-050-058-095>099-052200-
WEST-CENTRAL ILLINOIS

CITY           SKY/WX    TMP DP  RH WIND       PRES   REMARKS
QUINCY         PTSUNNY   83  53  35 S10       30.09F HX  82
GALESBURG*     PTSUNNY   78  65  64 N8        30.11F
MACOMB*        MOSUNNY   80  60  48 SW6       30.12F HX  81
JACKSONVILLE*  PTSUNNY   88  51  28 S13G20    30.10F HX  85
PITTSFIELD*    MOSUNNY   85  52  32 S8        30.11F HX  83
$$

ILZ028>032-037-038-041>044-048-051>054-059>061-052200-
CENTRAL ILLINOIS

CITY           SKY/WX    TMP DP  RH WIND       PRES   REMARKS
PONTIAC        CLOUDY    73  64  73 SE5       30.15S THUNDER
BLOOMINGTON    MOSUNNY   80  62  54 W13       30.13F HX  81
DECATUR        PTSUNNY   83  53  35 S15       30.11F HX  82
PEORIA         MOSUNNY   84  61  45 W8        30.11F HX  84
LACON*         CLOUDY    67  65  94 NE6       30.13S VSB 3/4
LINCOLN*       PTSUNNY   83  62  49 N5        30.08F HX  83
SPRINGFIELD    PTSUNNY   84  52  33 SW12      30.11F HX  82
TAYLORVILLE    PTSUNNY   86  50  28 SW10G16   30.11F HX  84
$$

ILZ033-039-045-046-055>057-062-063-052200-
EAST-CENTRAL ILLINOIS

CITY           SKY/WX    TMP DP  RH WIND       PRES   REMARKS
CHAMPAIGN      MOSUNNY   87  49  26 SW14      30.12F HX  84
DANVILLE*      MOSUNNY   85  53  33 S13G20    30.10F HAZE    HX  83
RANTOUL*       PTSUNNY   84  59  42 SW13      30.11F HX  84
MATTOON        PTSUNNY   81  51  35 S9G17     30.13F HX  80
PARIS*         MOSUNNY   85  50  30 S16       30.15F HX  83
$$

ILZ079-100>102-052200-
SOUTHWEST ILLINOIS

CITY           SKY/WX    TMP DP  RH WIND       PRES   REMARKS
ALTON          PTSUNNY   66  55  68 SW9       30.12
BELLEVILLE     MOSUNNY   83  58  41 VRB7      30.11F HX  83
CAHOKIA*       CLOUDY    80  57  45 S9        30.12F HX  80
SPARTA*        PTSUNNY   79  59  49 W10       30.14F HX  80
$$

ILZ064>066-069>071-074>076-080>082-084>086-088>090-092>094-052200-
SOUTH-CENTRAL ILLINOIS

CITY           SKY/WX    TMP DP  RH WIND       PRES   REMARKS
CARBONDALE     MOSUNNY   84  58  40 S9        30.13F HX  83
CAIRO*         CLOUDY    82  55  39 SE8       30.14F HX  81
EFFINGHAM*     MOSUNNY   83  48  29 S12       30.16F HX  81
MT. VERNON     SUNNY    N/A N/A N/A S10       30.14F
CENTRALIA*     MOSUNNY   89  50  26 SW12      30.13F HX  86
SALEM*         MOSUNNY   85  49  28 S7G17     30.14F HX  82
METROPOLIS*    MOSUNNY   86  55  35 S7        30.14F HX  84
$$

ILZ067-068-072-073-078-083-087-091-052200-
SOUTHEAST ILLINOIS

CITY           SKY/WX    TMP DP  RH WIND       PRES   REMARKS
LAWRENCEVILLE  PTSUNNY   83  52  34 S15       30.15F HX  82
FLORA*         MOSUNNY   83  52  33 SW7       30.15F HX  82
FAIRFIELD*     MOSUNNY   84  54  35 SW8G16    30.13F HX  83
HARRISBURG*    MOSUNNY   84  52  33 S8        30.15F HX  82
ROBINSON*      PTSUNNY   87  51  28 SW8       30.16F HX  84
CARMI*         SUNNY     84  45  25 SE8       30.15F HX  81
$$

ABBREVIATIONS USED IN REMARKS
   TC - TEMPERATURE IN CELSIUS
  WCI - WIND CHILL INDEX
   HX - HEAT INDEX
  VSB - VISIBILITY
$$



USA.gov is the U.S. government's official web portal to all federal, state and local government web resources and services.